BEIDOU-3 M9 (43581 NORAD) Tracking and Keplerian Element Data

This shows tracking and keplerian element data for the satellite.

Feedback or suggestion? Click here.




ElementValue
Catalog43581
NameBEIDOU-3 M9
Epoch Orbit53
Epoch Day239.42633463
Epoch Year2018
RAAN279.82
Inclination54.9687
Eccentricity0.0006385
Argument of Perigee238.5123
Mean Anonmoly114.5657
Mean Motion1.8623184
Decay Rate1.8E-07
L11 43581U 18062A 18239.42633463 .00000018 00000-0 00000+0 0 9990
L22 43581 54.9687 279.8200 0006385 238.5123 114.5657 1.86231840 536

Live tracking and technical data element details for BEIDOU-3 M9 (NORAD 43581). BEIDOU-3 M9 can be tracked NOW for your location showing map with azimuth and elevation plus other details from your city location.

Track the satellite on the map from your city or location and see movement details for azimuth, elevation, latitude, longitude, range, height, and movement on the map or in text.







IsCatalogInMostPopularTable: catalog: 43581, numindb: 35
Update: records affected: 1



GetName: 43581 BEIDOU-3 M9

Hit Count: updated at: Sat, 17 Nov 2018 03:22:53 GMT